map of ESB home
Great Circle Mapper logo
ESB - Airport
Location
City:  Ankara, Turkey
Name:Esenboga International Airport
ICAO / IATA:LTAC / ESB

Details
Type:Airport (Aerodrome, Airfield)
Use:Public/Civil, International (customs port of entry)
Latitude:4007'41"N (40.128056)
Longitude:3259'42"E (32.995000)
Elevation:3125 ft (953 m)
Variation:5.4E (WMM2015 magnetic declination)
Runways:2
Longest:12303 × 197 ft (3750 × 60 m), paved

Time
Time Zone:UTC+2 (DST+3)
Local Time:

Weather
METAR:LTAC 181250Z VRB02KT 4300 BR SCT009 BKN030 OVC090 03/02 Q1017 NOSIG
TAF:LTAC 181040Z 1812/1912 VRB02KT 4000 BR BKN030 OVC080
TEMPO 1812/1816 -RA
BECMG 1818/1820 2500
BECMG 1905/1908 6000 SCT040 BKN100

Related Locations
Nearby:
Farthest:NTAV: 11310 mi / 18202 km
Raivavae, Tubuai Islands, Austral Islands, PF

Find:

   beyond  
but within

Other Information
Maps:
NOTAMs:
Links:
Sources:

  
flag of Turkey   

Sectional Chart

Flight Planning
at skyvector.com

Satellite Image

Google Maps Satellite View

 

Copyright © 2004-2014 Karl L. Swartz. All rights reserved.
The Great Circle Mapper name and logo are trademarks of the Great Circle Mapper.
All other trademarks mentioned herein belong to their respective owners.
Please see credits for attibutions and further copyright information.

  Follow gcmap on Facebook Follow gcmap on Twitter

hCard Microformat

Geo Microformat